sat.trackr.live / text

‹ back to catalog

STARLINK-36159

NORAD 67079 · 2025-298E

PAYLOAD ACTIVE UNKNOWN

§ Identity

Operator
Country
US
Launch date
2025-12-14
Launch site
AFWTR
Launch vehicle
Mass (kg)
RCS (m²)

Purposes: comms

External: N2YO · Heavens-Above · Gunter

§ Orbital elements

Epoch: 2026-09-19T09:03:24.482016Z

Period
96.11 min
Inclination
69.9989°
Eccentricity
0.0003876
Mean motion
14.98337055 rev/d
Perigee alt
569.3 km
Apogee alt
574.7 km
Semi-major
6,950.2 km
B*
2.5598e-4
RAAN
245.9599°
Arg perigee
266.1816°
Mean anomaly
93.8900°
Rev number
4,223

§ Raw data

STARLINK-361591 67079U 25298E   26262.37736669  .00002963  00000+0  25598-3 0  99912 67079  69.9989 245.9599 0003876 266.1816  93.8900 14.98337055 42233

JSON: /api/v1/satellites/67079 · /tle

For live sub-satellite position, see the globe view (requires WebGL).

§ Visibility from observer

Set your observer location to see the next 7 days of passes ≥ 10°. The values pass through the URL so the page stays shareable.

No JS? Fill the form by hand. The geolocation button needs JavaScript.